IRNSS-1I (43286 NORAD) Tracking and Keplerian Element Data

This shows tracking and keplerian element data for the satellite.

Feedback or suggestion? Click here.




ElementValue
Catalog43286
NameIRNSS-1I
Epoch Orbit385
Epoch Day109.59593329
Epoch Year2019
RAAN116.6387
Inclination29.15
Eccentricity0.0020543
Argument of Perigee190.7996
Mean Anonmoly169.5653
Mean Motion1.0027445
Decay Rate1.17E-06
L11 43286U 18035A 19109.59593329 .00000117 00000-0 00000-0 0 9994
L22 43286 29.1500 116.6387 0020543 190.7996 169.5653 1.00274450 3853

Live tracking and technical data element details for IRNSS-1I (NORAD 43286). IRNSS-1I can be tracked NOW for your location showing map with azimuth and elevation plus other details from your city location.

Track the satellite on the map from your city or location and see movement details for azimuth, elevation, latitude, longitude, range, height, and movement on the map or in text.







IsCatalogInMostPopularTable: catalog: 43286, numindb: 381
Update: records affected: 1



GetName: 43286 IRNSS-1I

Hit Count: updated at: Sat, 20 Apr 2019 20:09:58 GMT